Regional Weather Roundup
Issued by NWS

Home | Current Version | Previous Version | Text Only | Print | Product List | Glossary Off
Versions: 1 2 3 4 5 6 7 8 9 10 11 12 13 14 15 16 17 18 19 20 21 22 23 24 25 26 27 28 29 30 31 32 33 34 35 36 37 38 39 40 41 42 43 44 45 46 47 48 49 50

000
ASUS43 KMKX 251120
RWRWI

WISCONSIN REGIONAL WEATHER ROUNDUP
NATIONAL WEATHER SERVICE MILWAUKEE/SULLIVAN WI
600 AM CDT WED APR 25 2018

NOTE: "FAIR" INDICATES FEW OR NO CLOUDS BELOW 12,000 FEET WITH NO
SIGNIFICANT WEATHER AND/OR OBSTRUCTIONS TO VISIBILITY.

WIZ001-002-006>008-014>016-023>028-251200-
NORTHWEST WISCONSIN

CITY           SKY/WX    TMP DP  RH WIND       PRES   REMARKS
SUPERIOR ARPT  FAIR      23  21  92 S3        30.27F
ASHLAND        FAIR      26  23  88 CALM      30.27R
HAYWARD        FAIR      25  23  92 CALM      30.24F
SIREN          FAIR      26  20  80 CALM      30.26S
CUMBERLAND     FAIR      30  23  74 N6        30.23S WCI  24
RICE LAKE      FAIR      32  26  78 N6        30.24F WCI  26
CHETEK         FAIR      28  26  91 CALM      30.23S
LADYSMITH      FAIR      28  25  89 N5        30.23F WCI  22
EAU CLAIRE     FAIR      32  25  75 N5        30.22S WCI  27
MENOMONIE      FAIR      35  26  71 CALM      30.24R
NEW RICHMOND   FAIR      30  23  74 N7        30.25R WCI  23
OSCEOLA        FAIR      32  25  74 N3        30.29R
$$

WIZ003>005-009-010-017-018-251200-
NORTH CENTRAL WISCONSIN

CITY           SKY/WX    TMP DP  RH WIND       PRES   REMARKS
MANITOWISH WTR FAIR      24  24 100 NW3       30.20S
ARBOR VITAE    FAIR      29  28  95 CALM      30.19S
WOODRUFF       FAIR      29  28  95 CALM      30.19S
RHINELANDER    FAIR      29  26  89 CALM      30.18S
EAGLE RIVER    FAIR      27  26  96 NW5       30.18S WCI  21
LAND O LAKES   FAIR      27  25  93 N3        30.20R
PHILLIPS       FAIR      27  26  98 N5        30.21S WCI  22
TOMAHAWK       FAIR      28  27  97 NW3       30.20R
MEDFORD        FAIR      29  27  92 N5        30.18S WCI  24
MERRILL        FAIR      30  29  97 NE3       30.19S
$$

WIZ029-030-035-036-043>047-251200-
CENTRAL WISCONSIN

CITY           SKY/WX    TMP DP  RH WIND       PRES   REMARKS
WAUSAU         FAIR      32  30  92 N7        30.17R WCI  26
MOSINEE        CLEAR     32  30  93 N5        30.19R WCI  27
MARSHFIELD     FAIR      34  31  88 N9        30.17R WCI  27
STEVENS POINT  FAIR      32  32  99 N6        30.18R WCI  26
WAUPACA        FAIR      38  34  85 N7        30.18R WCI  32
WAUTOMA        FAIR      37  33  85 CALM      30.18R
WISC RAPIDS    FAIR      36  32  85 N10       30.19R WCI  28
CAMP DOUGLAS   FAIR      31  30  99 W7        30.18R WCI  24
$$

WIZ011>013-019>022-031-037>040-048>050-251200-
NORTHEAST WISCONSIN

CITY           SKY/WX    TMP DP  RH WIND       PRES   REMARKS
ANTIGO         FAIR      29  28  94 N7        30.17R WCI  22
SHAWANO        FAIR      36  30  80 N8        30.17R WCI  29
OCONTO         FAIR      34  29  83 N9        30.16R WCI  26
STURGEON BAY   FAIR      34  29  82 N14       30.14S WCI  25
GREEN BAY      FAIR      36  31  82 N10       30.16R WCI  28
MANITOWOC      FAIR      37  31  78 N10       30.13R WCI  30
APPLETON       CLEAR     37  30  75 N12       30.13S WCI  30
CLINTONVILLE   FAIR      35  29  79 N7        30.18R WCI  29
OSHKOSH        FAIR      37  34  89 N7        30.15R WCI  32
$$

WIZ032>034-041-042-053>061-251200-
SOUTHWEST WISCONSIN

CITY           SKY/WX    TMP DP  RH WIND       PRES   REMARKS
LA CROSSE      FAIR      38  34  85 NW9       30.20R WCI  31
SPARTA         FAIR      32  32 100 CALM      30.20S
VIROQUA        FAIR      36  36 100 N9        30.17R WCI  29
BOSCOBEL       FAIR      36  32  85 CALM      30.17R
PRAIRIE DU CHI FAIR      43  32  66 N5        30.16S
PLATTEVILLE    FAIR      37  32  82 N6        30.14S WCI  32
$$

WIZ056-057-062-063-064-067-068-251200-
SOUTH CENTRAL WISCONSIN

CITY           SKY/WX    TMP DP  RH WIND       PRES   REMARKS
REEDSBURG      FAIR      39  36  89 N6        30.16S WCI  35
BARABOO/DELLS  FAIR      38  34  84 N5        30.15S WCI  35
LONE ROCK      FAIR      42  37  82 CALM      30.16R
MINERAL POINT  FAIR      41  34  75 N8        30.13S
MADISON        FAIR      38  31  76 N6        30.14R WCI  33
MIDDLETON      FAIR      40  33  77 N3        30.15S
WATERTOWN      FAIR      38  35  89 N5        30.13R WCI  35
MONROE         FAIR      39  30  70 N9        30.12R WCI  33
JANESVILLE     CLEAR     45  32  61 N9G17     30.11F
$$

WIZ051-052-058>065-066-070>072-251200-
SOUTHEAST WISCONSIN

CITY           SKY/WX    TMP DP  RH WIND       PRES   REMARKS
MILWAUKEE      FAIR      40  34  79 N9        30.12R WCI  34
WAUKESHA       CLEAR     36  32  87 N5        30.13R WCI  32
MILWAUKEE/TIMM FAIR      36  32  87 N6        30.13R WCI  31
RACINE         FAIR      39  34  82 N16G25    30.12R WCI  30
BURLINGTON     FAIR      40  32  74 N6        30.12R
KENOSHA        FAIR      40  33  76 N13G22    30.11R WCI  32
FOND DU LAC    FAIR      39  35  86 N12       30.14R WCI  32
SHEBOYGAN      FAIR      38  35  89 N10       30.12R WCI  31
WEST BEND      MOCLDY    37  34  87 CALM      30.12R
JUNEAU         FAIR      37  34  89 N3        30.15R
$$

LSZ147-162-251200-
LAKE SUPERIOR

STATION/POSITION TIME  TEMP    WIND        PRES    WAVE
                       AIR SEA DIR/SP/G            HT/PER
                 (UTC) (F)     (DEG/KT/KT) (MB)    (FT/S)
DEVILS ISLAND    1100   35      10/  8/  9 1025.5F
SAXON HARBOR     1040   26     190/  2/  4 1024.4R
$$

LMZ867-665-643>646-251200-
LAKE MICHIGAN

STATION/POSITION TIME  TEMP    WIND        PRES    WAVE
                       AIR SEA DIR/SP/G            HT/PER
                 (UTC) (F)     (DEG/KT/KT) (MB)    (FT/S)
NORTHPORT PIER   1040   35                 1020.3S
KEWAUNEE LAKESHO 1054   37     340/  9/ 14 1019.4R
SHEBOYGAN LAKESH 1100   40     340/ 13/ 16 1020.5R
PORT WASHINGTON  1030   40     320/  4/  6 1020.7S
MILWAUKEE LAKESH 1100   40     340/  7/  9   N/A
KENOSHA   LAKESH 1100   41                 1019.0
$$

TC  - TEMPERATURE IN CELSIUS
VSB - VISIBILITY IN STATUTE MILES
WCI - WIND CHILL INDEX
HX  - HEAT INDEX





USA.gov is the U.S. government's official web portal to all federal, state and local government web resources and services.